# Total inorganic carbon (TCO2) in a unit kg  of seawater measured onboard R/V Kaiyo (NODC Code: unknown) of the Japan Marine Science and Technology Center (JAMSTEC).,,,,,,,,,,,,,,,,,
# Cruise = KY94-06,,,,,,,,,,,,,,,,,
"# Measured by Meteorological Research Institute using coulometric technique (Ishii, et al., 1998). ",,,,,,,,,,,,,,,,,
"# Batches of Certified Reference Material for TCO2 analysis provided by Dr A. G. Dickson have been used for quality control. Significant offset, if any, has been corrected for.",,,,,,,,,,,,,,,,,
"# Total alkalinity (TA) has been calculated from TCO2, SST, salinity and pCO2 that have been concurrently measured using carbonic acid dissociation constants given by Roy et al., 1993.",,,,,,,,,,,,,,,,,
# Date and Time = UTC,,,,,,,,,,,,,,,,,
"# Quality flag (F); good=2, questionable=3, bad =4, not reported = 5, no data =9",,,,,,,,,,,,,,,,,
#,,,,,,,,,,,,,,,,,
Ship,Cruise,No.,Date,,,Time,,Latitude,Longitude,TCO2,F,TA_calcd,F,SST,F,SSS,F
,,,year,month,day,hour,min,deg,deg,umol/kg,,umol/kg,,degC,,,
Kaiyo,9406,1,1994,11,17,8,0,13.06,144.5,1901,2,2273.1,2,28.08,2,34.399,2
Kaiyo,9406,2,1994,11,17,9,0,12.86,144.5,1905.7,2,2278,2,28.03,2,34.395,2
Kaiyo,9406,3,1994,11,17,10,0,12.65,144.5,1904.9,2,2276.7,2,28.18,2,34.413,2
Kaiyo,9406,4,1994,11,17,11,0,12.45,144.49,1909.8,2,2284.1,2,28.25,2,34.449,2
Kaiyo,9406,5,1994,11,17,12,0,12.25,144.48,1905.3,2,2278.4,2,28.24,2,34.45,2
Kaiyo,9406,6,1994,11,17,13,0,12.05,144.48,1907.4,2,2278.5,2,28.05,2,34.456,2
Kaiyo,9406,7,1994,11,17,14,0,11.86,144.53,1909.1,2,2280.1,2,27.98,2,34.441,2
Kaiyo,9406,8,1994,11,17,15,0,11.68,144.59,1905.2,2,2278.4,2,28.25,2,34.419,2
Kaiyo,9406,9,1994,11,17,16,0,11.48,144.64,1904.3,2,2278,2,28.37,2,34.431,2
Kaiyo,9406,10,1994,11,17,17,0,11.29,144.68,1906.6,2,2279.6,2,28.42,2,34.428,2
Kaiyo,9406,11,1994,11,17,18,0,11.1,144.74,1902.1,2,2273,2,28.39,2,34.32,2
Kaiyo,9406,12,1994,11,17,19,0,10.91,144.79,1898.5,2,2269,2,28.36,2,34.28,2
Kaiyo,9406,13,1994,11,17,20,0,10.72,144.84,1904.5,2,2278.9,2,28.45,2,34.365,2
Kaiyo,9406,14,1994,11,17,21,0,10.54,144.9,1903.7,2,2278.7,2,28.48,2,34.439,2
Kaiyo,9406,15,1994,11,18,4,0,9.12,145.24,1892.2,2,2257.5,2,29,2,34.183,2
Kaiyo,9406,16,1994,11,18,6,0,8.74,145.35,1893.5,2,2259.8,2,29.17,2,34.147,2
Kaiyo,9406,17,1994,11,18,7,0,8.54,145.41,1884.7,2,2249.5,2,29.33,2,34.125,2
Kaiyo,9406,18,1994,11,18,8,0,8.34,145.46,1882.5,2,2246.4,2,29.48,2,34.018,2
Kaiyo,9406,19,1994,11,18,9,0,8.14,145.53,1880,2,2242.7,2,29.36,2,33.966,2
Kaiyo,9406,20,1994,11,18,10,0,7.94,145.59,1882.9,2,2246,2,29.45,2,33.963,2
Kaiyo,9406,21,1994,11,18,11,0,7.75,145.66,1883.3,2,2247.5,2,29.46,2,33.994,2
Kaiyo,9406,22,1994,11,18,12,0,7.54,145.73,1883.6,2,2248,2,29.52,2,34.011,2
Kaiyo,9406,23,1994,11,18,13,0,7.34,145.8,1885.3,2,2250.7,2,29.55,2,34.035,2
Kaiyo,9406,24,1994,11,18,14,0,7.15,145.88,1882.6,2,2248.7,2,29.5,2,34.059,2
Kaiyo,9406,25,1994,11,18,15,0,6.94,145.94,1880.3,2,2247.7,2,29.44,2,34.026,2
Kaiyo,9406,26,1994,11,18,16,0,6.73,145.99,1880.9,2,2249,2,29.42,2,34.004,2
Kaiyo,9406,27,1994,11,18,17,0,6.52,146,1880.4,2,2248.7,2,29.48,2,34.001,2
Kaiyo,9406,28,1994,11,18,18,0,6.31,146,1879.4,2,2244.8,2,29.41,2,33.949,2
Kaiyo,9406,29,1994,11,18,19,0,6.11,146,1877.1,2,2242.1,2,29.38,2,33.916,2
Kaiyo,9406,30,1994,11,18,20,0,5.9,146,1879.7,2,2246.3,2,29.51,2,33.913,2
Kaiyo,9406,31,1994,11,18,21,0,5.7,146,1870.6,2,2234.3,2,29.52,2,33.875,2
Kaiyo,9406,32,1994,11,19,2,0,5.16,146.03,1876.9,2,2241.6,2,29.91,2,33.953,2
Kaiyo,9406,33,1994,11,19,3,0,5.04,146.06,1878,2,2243.7,2,29.89,2,33.969,2
Kaiyo,9406,34,1994,11,19,4,0,4.83,146.09,1876.9,2,2239.7,2,29.86,2,33.97,2
Kaiyo,9406,35,1994,11,19,5,0,4.63,146.13,1882.6,2,2249.2,2,30.04,2,33.959,2
Kaiyo,9406,36,1994,11,19,6,0,4.43,146.17,1882.3,2,2251.5,2,30.13,2,33.964,2
Kaiyo,9406,37,1994,11,19,8,0,4.02,146.27,1888.5,2,2259.8,2,30.26,2,34.096,2
Kaiyo,9406,38,1994,11,19,9,0,3.81,146.32,1895.7,2,2267.5,2,30.24,2,34.16,2
Kaiyo,9406,39,1994,11,19,10,0,3.6,146.36,1900.7,2,2270.9,2,30.2,2,34.191,2
Kaiyo,9406,40,1994,11,19,11,0,3.39,146.39,1896,2,2265.3,2,29.96,2,34.248,2
Kaiyo,9406,41,1994,11,19,12,0,3.18,146.42,1901.9,2,2271.3,2,29.96,2,34.26,2
Kaiyo,9406,42,1994,11,19,13,0,2.97,146.46,1897.7,2,2265.3,2,29.89,2,34.233,2
Kaiyo,9406,43,1994,11,19,14,0,2.77,146.51,1894.7,2,2261.2,2,29.79,2,34.229,2
Kaiyo,9406,44,1994,11,19,15,0,2.56,146.55,1895.1,2,2264.3,2,29.97,2,34.21,2
Kaiyo,9406,45,1994,11,19,16,0,2.36,146.6,1893.6,2,2265.8,2,29.99,2,34.212,2
Kaiyo,9406,46,1994,11,19,17,0,2.15,146.65,1891.1,2,2260.4,2,29.93,2,34.201,2
Kaiyo,9406,47,1994,11,19,18,0,1.94,146.69,1895.1,2,2262.9,2,29.96,2,34.181,2
Kaiyo,9406,48,1994,11,19,19,0,1.74,146.74,1893.4,2,2260.3,2,30,2,34.178,2
Kaiyo,9406,49,1994,11,19,20,0,1.53,146.78,1892.5,2,2260.5,2,29.91,2,34.169,2
Kaiyo,9406,50,1994,11,19,21,0,1.33,146.83,1888,2,2257.6,2,29.9,2,34.131,2
Kaiyo,9406,51,1994,11,19,22,0,1.11,146.87,1888.5,2,2259.7,2,29.99,2,34.143,2
Kaiyo,9406,52,1994,11,20,3,0,0.16,147,1880.8,2,2251.1,2,29.96,2,34.023,2
Kaiyo,9406,53,1994,11,20,4,0,0.17,147.01,1880.9,2,2249.5,2,30.03,2,34.006,2
Kaiyo,9406,54,1994,11,20,5,0,0.18,147.04,1878.6,2,2245.3,2,30.07,2,33.983,2
Kaiyo,9406,55,1994,11,20,6,0,0.17,147.25,1882.7,2,2252.7,2,30.17,2,33.983,2
Kaiyo,9406,56,1994,11,20,7,0,0.16,147.47,1884,2,2254.4,2,30.21,2,34.031,2
Kaiyo,9406,57,1994,11,20,8,0,0.14,147.68,1883.7,2,2253.6,2,30.21,2,34.038,2
Kaiyo,9406,58,1994,11,20,9,0,0.12,147.9,1886.9,2,2256.2,2,30.25,2,34.049,2
Kaiyo,9406,59,1994,11,20,10,0,0.11,148.11,1886.5,2,2256.4,2,30.22,2,34.072,2
Kaiyo,9406,60,1994,11,20,11,0,0.09,148.33,1885.7,2,2255.2,2,30.22,2,34.073,2
Kaiyo,9406,61,1994,11,20,12,0,0.07,148.55,1884.8,2,2254.8,2,30.33,2,34.056,2
Kaiyo,9406,62,1994,11,20,13,0,0.06,148.76,1887.3,2,2255.6,2,30.25,2,34.099,2
Kaiyo,9406,63,1994,11,20,14,0,0.05,148.98,1893.1,2,2262.9,2,30.34,2,34.11,2
Kaiyo,9406,64,1994,11,20,15,0,0.05,149.19,1884.5,2,2252.7,2,30.02,2,34.125,2
Kaiyo,9406,65,1994,11,20,16,0,0.04,149.39,1882.1,2,2250.5,2,29.97,2,34.089,2
Kaiyo,9406,66,1994,11,20,17,0,0.02,149.6,1881.1,2,2249.2,2,29.99,2,34.062,2
Kaiyo,9406,67,1994,11,20,18,0,0.01,149.81,1882.1,2,2250.6,2,30.05,2,34.041,2
Kaiyo,9406,68,1994,11,20,19,0,0,150.01,1883.3,2,2254.1,2,30.1,2,34.022,2
Kaiyo,9406,69,1994,11,20,20,0,0,150.22,1884.9,2,2256.6,2,30.07,2,34.046,2
Kaiyo,9406,70,1994,11,20,21,0,0,150.43,1883.7,2,2252.8,2,30,2,34.064,2
Kaiyo,9406,71,1994,11,21,1,0,0.01,150.96,1884.4,2,2249,2,30.16,2,34.04,2
Kaiyo,9406,72,1994,11,21,2,0,0.01,150.99,1886.7,2,2250.6,2,30.3,2,34.025,2
Kaiyo,9406,73,1994,11,21,3,0,0,151.19,1882.1,2,2244.6,2,29.99,2,34.007,2
Kaiyo,9406,74,1994,11,21,4,0,0,151.4,1882.2,2,2242.6,2,29.87,2,33.948,2
Kaiyo,9406,75,1994,11,21,5,0,0,151.6,1887.1,2,2246.5,2,29.96,2,33.916,2
Kaiyo,9406,76,1994,11,21,6,0,0,151.8,1881.8,2,2239.7,2,29.99,2,33.935,2
Kaiyo,9406,77,1994,11,21,7,0,0.01,152,1881.4,2,2241.3,2,29.94,2,33.924,2
Kaiyo,9406,78,1994,11,21,8,0,0,152.2,1884.9,2,2244.9,2,29.91,2,33.876,2
Kaiyo,9406,79,1994,11,21,9,0,0,152.4,1884.8,2,2245.1,2,29.87,2,33.901,2
Kaiyo,9406,80,1994,11,21,10,0,0,152.6,1883.3,2,2244.1,2,29.88,2,33.91,2
Kaiyo,9406,81,1994,11,21,11,0,-0.01,152.81,1880.6,2,2244.9,2,30.17,2,33.9,2
Kaiyo,9406,82,1994,11,21,12,0,-0.01,153.02,1881.2,2,2244.3,2,29.95,2,33.916,2
Kaiyo,9406,83,1994,11,21,13,0,0,153.24,1877.6,2,2241.5,2,29.96,2,33.918,2
Kaiyo,9406,84,1994,11,21,14,0,0,153.46,1877.8,2,2241.8,2,30.1,2,33.906,2
Kaiyo,9406,85,1994,11,21,15,0,0,153.67,1871.1,2,2234.2,2,29.86,2,33.908,2
Kaiyo,9406,86,1994,11,21,16,0,-0.01,153.88,1879,2,2243.2,2,29.81,2,33.88,2
Kaiyo,9406,87,1994,11,21,17,0,0,154.09,1876.4,2,2240.7,2,29.62,2,33.874,2
Kaiyo,9406,88,1994,11,21,18,0,0,154.3,1877,2,2240.9,2,29.7,2,33.845,2
Kaiyo,9406,89,1994,11,21,19,0,0,154.52,1879.3,2,2243.8,2,29.88,2,33.832,2
Kaiyo,9406,90,1994,11,21,20,0,0,154.73,1881.3,2,2243.5,2,29.94,2,33.856,2
Kaiyo,9406,91,1994,11,22,0,0,0.01,155.31,1879.4,2,2241.2,2,29.7,2,33.866,2
Kaiyo,9406,92,1994,11,22,1,0,0.01,155.31,1879.7,2,2241.5,2,29.74,2,33.876,2
Kaiyo,9406,93,1994,11,22,2,0,0,155.51,1873.8,2,2236.7,2,29.62,2,33.879,2
Kaiyo,9406,94,1994,11,22,3,0,0,155.73,1879.7,2,2243.3,2,29.72,2,33.88,2
Kaiyo,9406,95,1994,11,22,4,0,0,155.94,1878.1,2,2241.7,2,29.8,2,33.88,2
Kaiyo,9406,96,1994,11,22,5,0,0,156.07,1879.2,2,2242.3,2,29.77,2,33.893,2
Kaiyo,9406,97,1994,11,22,6,0,0,156.28,1877.5,2,2241.2,2,29.7,2,33.879,2
Kaiyo,9406,98,1994,11,22,7,0,0,156.51,1880.8,2,2244.3,2,29.89,2,33.873,2
Kaiyo,9406,99,1994,11,22,8,0,0,156.72,1881.5,2,2243.5,2,29.9,2,33.909,2
Kaiyo,9406,100,1994,11,22,9,0,0,156.93,1886.2,2,2247.5,2,30.08,2,33.911,2
Kaiyo,9406,101,1994,11,22,10,0,0,157.14,1882.3,2,2243.5,2,30.16,2,33.916,2
Kaiyo,9406,102,1994,11,22,11,0,0.01,157.35,1879.7,2,2240.7,2,30.08,2,33.883,2
Kaiyo,9406,103,1994,11,22,12,0,0.01,157.56,1880.7,2,2241.9,2,30.04,2,33.859,2
Kaiyo,9406,104,1994,11,22,13,0,0.01,157.76,1881.1,2,2241.8,2,29.99,2,33.871,2
Kaiyo,9406,105,1994,11,22,14,0,0.01,157.98,1879.4,2,2239.4,2,30,2,33.873,2
Kaiyo,9406,106,1994,11,22,15,0,0.01,158.18,1881.7,2,2243.1,2,30.18,2,33.87,2
Kaiyo,9406,107,1994,11,22,16,0,0.01,158.39,1883.3,2,2244.1,2,30.07,2,33.877,2
Kaiyo,9406,108,1994,11,22,17,0,0.01,158.6,1882.5,2,2243.7,2,30.08,2,33.887,2
Kaiyo,9406,109,1994,11,22,18,0,0,158.82,1883.6,2,2245,2,30.14,2,33.903,2
Kaiyo,9406,110,1994,11,22,19,0,0,159.03,1885.3,2,2246.7,2,30.18,2,33.9,2
Kaiyo,9406,111,1994,11,22,20,0,0,159.24,1884.3,2,2245.6,2,30.11,2,33.912,2
Kaiyo,9406,112,1994,11,23,1,0,0.01,159.85,1884.9,2,2245.2,2,30.14,2,33.946,2
Kaiyo,9406,113,1994,11,23,2,0,0,160.06,1885.6,2,2248.3,2,30.07,2,33.948,2
Kaiyo,9406,114,1994,11,23,3,0,0,160.27,1884.2,2,2246.6,2,29.97,2,33.955,2
Kaiyo,9406,115,1994,11,23,4,0,0,160.47,1885.3,2,2247.1,2,30.2,2,33.942,2
Kaiyo,9406,116,1994,11,23,5,0,0,160.68,1886.3,2,2249.2,2,30.23,2,33.959,2
Kaiyo,9406,117,1994,11,23,6,0,0,160.88,1885.5,2,2248.3,2,30.29,2,33.961,2
Kaiyo,9406,118,1994,11,23,7,0,0,161.08,1884.2,2,2247.8,2,30.22,2,33.949,2
Kaiyo,9406,119,1994,11,23,8,0,0,161.29,1883.8,2,2246.8,2,30.29,2,33.957,2
Kaiyo,9406,120,1994,11,23,9,0,0,161.5,1884.4,2,2247.1,2,30.21,2,33.939,2
Kaiyo,9406,121,1994,11,23,10,0,0,161.71,1883.1,2,2246.1,2,30.12,2,33.926,2
Kaiyo,9406,122,1994,11,23,11,0,0,161.92,1887.8,2,2251.8,2,30.24,2,33.944,2
Kaiyo,9406,123,1994,11,23,12,0,0,162.12,1883.9,2,2246.7,2,30.2,2,33.958,2
Kaiyo,9406,124,1994,11,23,13,0,-0.01,162.35,1884.1,2,2246.4,2,30.14,2,33.939,2
Kaiyo,9406,125,1994,11,23,14,0,-0.01,162.56,1879.3,2,2240.4,2,30.11,2,33.886,2
Kaiyo,9406,126,1994,11,23,15,0,0,162.78,1876.8,2,2237.4,2,30.13,2,33.851,2
Kaiyo,9406,127,1994,11,23,16,0,0,163,1876.1,2,2236.7,2,30.33,2,33.848,2
Kaiyo,9406,128,1994,11,23,17,0,0,163.22,1885.8,2,2247.5,2,30.27,2,33.876,2
Kaiyo,9406,129,1994,11,23,18,0,0,163.43,1883.7,2,2246.6,2,30.44,2,33.911,2
Kaiyo,9406,130,1994,11,23,19,0,0,163.66,1878.5,2,2240.4,2,30.22,2,33.886,2
Kaiyo,9406,131,1994,11,23,20,0,0,163.88,1878.9,2,2239.4,2,30.04,2,33.842,2
Kaiyo,9406,132,1994,11,23,21,0,0,164.09,1878.2,2,2240.2,2,30.07,2,33.834,2
Kaiyo,9406,133,1994,11,24,2,0,0.01,164.75,1872.8,2,2233.1,2,29.92,2,33.748,2
Kaiyo,9406,134,1994,11,24,3,0,0.01,164.96,1877.1,2,2238.7,2,30.07,2,33.808,2
Kaiyo,9406,135,1994,11,24,4,0,0,165.16,1873.6,2,2234.8,2,29.9,2,33.833,2
Kaiyo,9406,136,1994,11,24,5,0,0,165.38,1873.2,2,2235.2,2,29.92,2,33.83,2
Kaiyo,9406,137,1994,11,24,6,0,0,165.59,1871,2,2233,2,29.84,2,33.82,2
Kaiyo,9406,138,1994,11,24,7,0,0,165.8,1870.9,2,2231.5,2,29.94,2,33.775,2
Kaiyo,9406,139,1994,11,24,8,0,0,166.01,1875,2,2237.5,2,29.94,2,33.774,2
Kaiyo,9406,140,1994,11,24,9,0,0,166.22,1874.7,2,2236.8,2,29.76,2,33.798,2
Kaiyo,9406,141,1994,11,24,10,0,0,166.43,1871.6,2,2232.7,2,29.78,2,33.756,2
Kaiyo,9406,142,1994,11,24,11,0,0.01,166.64,1874.6,2,2236.4,2,29.75,2,33.72,2
Kaiyo,9406,143,1994,11,24,12,0,0,166.84,1872,2,2232.6,2,29.72,2,33.754,2
Kaiyo,9406,144,1994,11,24,13,0,0,167.05,1875,2,2236.1,2,29.8,2,33.787,2
Kaiyo,9406,145,1994,11,24,14,0,-0.01,167.27,1875,2,2235.8,2,29.76,2,33.803,2
Kaiyo,9406,146,1994,11,24,15,0,0,167.41,1874.1,2,2234.6,2,29.67,2,33.755,2
Kaiyo,9406,147,1994,11,24,16,0,0.02,167.42,1871.7,2,2229.4,2,29.62,2,33.769,2
Kaiyo,9406,148,1994,11,24,17,0,0.03,167.43,1875.1,2,2233.2,2,29.62,2,33.778,2
Kaiyo,9406,149,1994,11,24,18,0,0.04,167.44,1874.5,2,2232.8,2,29.61,2,33.788,2
Kaiyo,9406,150,1994,11,24,19,0,0.05,167.44,1874.1,2,2228.2,2,29.6,2,33.794,2
Kaiyo,9406,151,1994,11,25,0,0,0.09,167.44,1875.7,2,2234.7,2,29.7,2,33.818,2
Kaiyo,9406,152,1994,11,25,1,0,0.08,167.43,1875.6,2,2234.9,2,29.73,2,33.821,2
Kaiyo,9406,153,1994,11,25,2,0,0.08,167.42,1875.5,2,2234,2,29.75,2,33.809,2
Kaiyo,9406,154,1994,11,25,3,0,0.07,167.42,1869.6,2,2227.4,2,29.7,2,33.796,2
Kaiyo,9406,155,1994,11,25,4,0,0.06,167.41,1872.2,2,2229.9,2,29.76,2,33.781,2
Kaiyo,9406,156,1994,11,25,5,0,0.05,167.4,1872.3,2,2230.6,2,29.75,2,33.792,2
Kaiyo,9406,157,1994,11,25,6,0,0.04,167.39,1872.7,2,2230.9,2,29.78,2,33.791,2
Kaiyo,9406,158,1994,11,25,7,0,0.04,167.38,1875.3,2,2234.7,2,29.86,2,33.788,2
Kaiyo,9406,159,1994,11,25,8,0,0.03,167.38,1873.8,2,2232.7,2,30.03,2,33.79,2
Kaiyo,9406,160,1994,11,25,9,0,0.02,167.37,1871.6,2,2230.4,2,29.96,2,33.791,2
Kaiyo,9406,161,1994,11,25,10,0,0.01,167.37,1868.7,2,2227.4,2,29.89,2,33.77,2
Kaiyo,9406,162,1994,11,25,11,0,0,167.36,1869.3,2,2227.7,2,29.93,2,33.754,2
Kaiyo,9406,163,1994,11,25,12,0,-0.01,167.36,1868.1,2,2226,2,29.84,2,33.737,2
Kaiyo,9406,164,1994,11,25,13,0,-0.02,167.35,1870.5,2,2228.7,2,29.89,2,33.732,2
Kaiyo,9406,165,1994,11,25,14,0,-0.03,167.35,1872.2,2,2230.7,2,29.86,2,33.74,2
Kaiyo,9406,166,1994,11,25,15,0,-0.04,167.34,1872.7,2,2230.9,2,29.85,2,33.743,2
Kaiyo,9406,167,1994,11,25,16,0,-0.06,167.34,1876.5,2,2235.2,2,29.81,2,33.759,2
Kaiyo,9406,168,1994,11,25,20,0,0.23,167.47,1874.8,2,2234.4,2,29.72,2,33.804,2
Kaiyo,9406,169,1994,11,25,21,0,0.41,167.56,1877.9,2,2238.6,2,29.76,2,33.799,2
Kaiyo,9406,170,1994,11,25,22,0,0.6,167.65,1873.9,2,2234.7,2,29.73,2,33.805,2
Kaiyo,9406,171,1994,11,25,23,0,0.77,167.73,1879.4,2,2240.4,2,29.89,2,33.807,2
Kaiyo,9406,172,1994,11,26,0,0,0.95,167.82,1878.4,2,2239.5,2,29.87,2,33.83,2
Kaiyo,9406,173,1994,11,26,1,0,1.13,167.91,1875.8,2,2236.6,2,29.76,2,33.853,2
Kaiyo,9406,174,1994,11,26,2,0,1.3,168,1878.6,2,2240.1,2,29.78,2,33.825,2
Kaiyo,9406,175,1994,11,26,3,0,1.49,168.09,1880.6,2,2242.4,2,29.92,2,33.832,2
Kaiyo,9406,176,1994,11,26,4,0,1.67,168.19,1876.7,2,2237.4,2,30.05,2,33.834,2
Kaiyo,9406,177,1994,11,26,5,0,1.85,168.28,1880.7,2,2241.5,2,30.1,2,33.847,2
Kaiyo,9406,178,1994,11,26,6,0,2.03,168.37,1879,2,2239.5,2,29.91,2,33.842,2
Kaiyo,9406,179,1994,11,26,7,0,2.21,168.47,1879.5,2,2241.6,2,30.04,2,33.861,2
Kaiyo,9406,180,1994,11,26,8,0,2.4,168.56,1882.1,2,2243.3,2,30.19,2,33.854,2
Kaiyo,9406,181,1994,11,26,9,0,2.58,168.65,1883.6,2,2245,2,30.05,2,33.878,2
Kaiyo,9406,182,1994,11,26,10,0,2.76,168.75,1876.8,2,2237.3,2,30.06,2,33.886,2
Kaiyo,9406,183,1994,11,26,11,0,2.94,168.84,1878.1,2,2238.4,2,30.03,2,33.861,2
Kaiyo,9406,184,1994,11,26,12,0,3.13,168.93,1877.9,2,2239.3,2,30.01,2,33.849,2
Kaiyo,9406,185,1994,11,26,13,0,3.32,169.02,1873.7,2,2234.2,2,30.08,2,33.849,2
Kaiyo,9406,186,1994,11,26,14,0,3.5,169.12,1869.7,2,2230.7,2,30.05,2,33.829,2
Kaiyo,9406,187,1994,11,26,15,0,3.67,169.23,1871.6,2,2231,2,30.19,2,33.787,2
Kaiyo,9406,188,1994,11,26,16,0,3.86,169.33,1875.9,2,2238,2,30.22,2,33.785,2
Kaiyo,9406,189,1994,11,26,17,0,4.04,169.41,1878.1,2,2239.2,2,30.2,2,33.834,2
Kaiyo,9406,190,1994,11,26,18,0,4.23,169.5,1880.7,2,2242.4,2,30.09,2,33.843,2
Kaiyo,9406,191,1994,11,26,19,0,4.41,169.59,1877.3,2,2238.8,2,30.25,2,33.875,2
Kaiyo,9406,192,1994,11,26,20,0,4.58,169.68,1879.7,2,2241.6,2,30.06,2,33.887,2
Kaiyo,9406,193,1994,11,26,21,0,4.77,169.77,1876.4,2,2237.6,2,30.07,2,33.869,2
Kaiyo,9406,194,1994,11,27,3,0,5.84,170.29,1874.2,2,2237.6,2,30.41,2,33.763,2
Kaiyo,9406,195,1994,11,27,4,0,6.01,170.39,1879.1,2,2243,2,30.16,2,33.81,2
Kaiyo,9406,196,1994,11,27,5,0,6.19,170.48,1876.9,2,2241.8,2,30.17,2,33.862,2
Kaiyo,9406,197,1994,11,27,6,0,6.37,170.58,1876.7,2,2242.1,2,29.99,2,33.872,2
Kaiyo,9406,198,1994,11,27,7,0,6.57,170.64,1871.5,2,2236.1,2,29.88,2,33.857,2
Kaiyo,9406,199,1994,11,27,8,0,6.76,170.71,1871.6,2,2235.9,2,29.8,2,33.821,2
Kaiyo,9406,200,1994,11,27,9,0,6.96,170.78,1871.5,2,2236.4,2,29.81,2,33.771,2
Kaiyo,9406,201,1994,11,27,10,0,7.12,170.78,1868.3,2,2230.8,2,29.83,2,33.759,2
Kaiyo,9406,202,1994,11,27,11,0,7.11,170.79,1872.1,2,2235.6,2,29.9,2,33.769,2
Kaiyo,9406,203,1994,11,27,12,0,7.1,170.8,1868.2,2,2226,2,29.75,2,33.739,2
Kaiyo,9406,204,1994,11,27,13,0,7.09,170.82,1872.9,2,2232.4,2,29.76,2,33.729,2
Kaiyo,9406,205,1994,11,27,14,0,7.1,170.83,1872.2,2,2230.3,2,29.76,2,33.737,2
Kaiyo,9406,206,1994,11,27,15,0,7.13,170.79,1872.6,2,2234.9,2,29.71,2,33.742,2
Kaiyo,9406,207,1994,11,27,16,0,7.13,170.79,1868.9,2,2227.1,2,29.67,2,33.767,2
Kaiyo,9406,208,1994,11,27,17,0,7.14,170.83,1867.9,2,2227.2,2,29.6,2,33.745,2
Kaiyo,9406,209,1994,11,27,18,0,7.2,171.01,1865.7,2,2229.7,2,29.67,2,33.717,2
Kaiyo,9406,210,1994,11,30,1,0,6.96,171.58,1872.6,2,2234,2,29.93,2,33.776,2
Kaiyo,9406,211,1994,11,30,2,0,6.84,171.75,1867.8,2,2231.3,2,29.71,2,33.752,2
Kaiyo,9406,212,1994,11,30,3,0,6.72,171.93,1868.9,2,2232.2,2,29.83,2,33.758,2
Kaiyo,9406,213,1994,11,30,4,0,6.61,172.09,1865.9,2,2229.2,2,29.79,2,33.778,2
Kaiyo,9406,214,1994,11,30,5,0,6.5,172.27,1869.4,2,2229.9,2,29.78,2,33.739,2
Kaiyo,9406,215,1994,11,30,6,0,6.38,172.43,1872.5,2,2232.9,2,29.73,2,33.752,2
Kaiyo,9406,216,1994,11,30,7,0,6.25,172.6,1872.4,2,2231.1,2,29.56,2,33.836,2
Kaiyo,9406,217,1994,11,30,8,0,6.14,172.76,1875.8,2,2236.2,2,29.9,2,33.804,2
Kaiyo,9406,218,1994,11,30,9,0,6.02,172.92,1877,2,2238.2,2,29.75,2,33.845,2
Kaiyo,9406,219,1994,11,30,10,0,5.88,173.06,1877.4,2,2238.7,2,29.78,2,33.832,2
Kaiyo,9406,220,1994,11,30,11,0,5.71,173.17,1865.2,2,2228.5,2,29.77,2,33.706,2
Kaiyo,9406,221,1994,11,30,12,0,5.52,173.17,1862.3,2,2225.8,2,29.75,2,33.665,2
Kaiyo,9406,222,1994,11,30,13,0,5.34,173.18,1876,2,2237.9,2,29.91,2,33.65,2
Kaiyo,9406,223,1994,11,30,14,0,5.15,173.19,1871.6,2,2231.5,2,29.96,2,33.664,2
Kaiyo,9406,224,1994,11,30,15,0,4.98,173.22,1871.3,2,2230.6,2,29.76,2,33.672,2
Kaiyo,9406,225,1994,11,30,16,0,4.83,173.34,1872.8,2,2232.7,2,29.56,2,33.712,2
Kaiyo,9406,226,1994,11,30,17,0,4.65,173.35,1879.3,2,2238.4,2,29.67,2,33.714,2
Kaiyo,9406,227,1994,11,30,18,0,4.47,173.34,1882.3,2,2240.3,2,29.67,2,33.794,2
Kaiyo,9406,228,1994,11,30,19,0,4.28,173.34,1892.6,2,2252.5,2,29.8,2,33.858,2
Kaiyo,9406,229,1994,11,30,23,0,3.98,173.74,1893.9,2,2254.6,2,29.9,2,34.042,2
Kaiyo,9406,230,1994,12,1,0,0,3.94,173.75,1893.2,2,2252.5,2,29.93,2,34.052,2
Kaiyo,9406,231,1994,12,1,1,0,3.76,173.8,1895.3,2,2259.5,2,29.91,2,34.056,2
Kaiyo,9406,232,1994,12,1,2,0,3.57,173.85,1894.9,2,2258.8,2,29.94,2,34.099,2
Kaiyo,9406,233,1994,12,1,3,0,3.38,173.91,1897.5,2,2261.2,2,29.99,2,34.064,2
Kaiyo,9406,234,1994,12,1,4,0,3.19,173.96,1898.8,2,2262.4,2,30.01,2,34.077,2
Kaiyo,9406,235,1994,12,1,5,0,3,174.01,1900.2,2,2263.1,2,30.04,2,34.082,2
Kaiyo,9406,236,1994,12,1,6,0,2.81,174.07,1888.7,2,2249.7,2,29.95,2,34.107,2
Kaiyo,9406,237,1994,12,1,7,0,2.62,174.12,1899.5,2,2262.3,2,29.99,2,34.043,2
Kaiyo,9406,238,1994,12,1,8,0,2.43,174.17,1894.1,2,2255.6,2,30.04,2,34.048,2
Kaiyo,9406,239,1994,12,1,9,0,2.23,174.22,1894.5,2,2255.5,2,30.01,2,34.078,2
Kaiyo,9406,240,1994,12,1,10,0,2.05,174.28,1896,2,2256.4,2,30.03,2,34.05,2
Kaiyo,9406,241,1994,12,1,11,0,1.86,174.35,1895.8,2,2258.1,2,30.09,2,34.069,2
Kaiyo,9406,242,1994,12,1,12,0,1.67,174.42,1898.1,2,2261.8,2,30.12,2,34.081,2
Kaiyo,9406,243,1994,12,1,13,0,1.46,174.47,1900.8,2,2264.7,2,30.22,2,34.121,2
Kaiyo,9406,244,1994,12,1,14,0,1.27,174.52,1898.1,2,2262,2,30.16,2,34.135,2
Kaiyo,9406,245,1994,12,1,15,0,1.07,174.56,1900.6,2,2266.4,2,30.33,2,34.138,2
Kaiyo,9406,246,1994,12,1,16,0,0.88,174.63,1897.8,2,2261.3,2,30.12,2,34.108,2
Kaiyo,9406,247,1994,12,1,17,0,0.7,174.71,1898.3,2,2263,2,30.07,2,34.115,2
Kaiyo,9406,248,1994,12,1,18,0,0.51,174.79,1898.7,2,2263.7,2,30.06,2,34.11,2
Kaiyo,9406,249,1994,12,1,19,0,0.33,174.87,1899,2,2264,2,30.17,2,34.114,2
Kaiyo,9406,250,1994,12,1,20,0,0.14,174.95,1900,2,2265.9,2,30.16,2,34.128,2
Kaiyo,9406,251,1994,12,2,0,0,0.01,175.25,1893.3,2,2255.3,2,30.26,2,34.049,2
Kaiyo,9406,252,1994,12,2,1,0,0.01,175.44,1896.7,2,2262.7,2,30.36,2,34.086,2
Kaiyo,9406,253,1994,12,2,2,0,0.01,175.65,1888.4,2,2252.8,2,30.26,2,34.123,2
Kaiyo,9406,254,1994,12,2,3,0,0.01,175.85,1892.7,2,2259,2,30.42,2,34.146,2
Kaiyo,9406,255,1994,12,2,4,0,0,176.05,1892.1,2,2258.1,2,30.3,2,34.139,2
Kaiyo,9406,256,1994,12,2,5,0,0,176.25,1894,2,2260.5,2,30.34,2,34.137,2
Kaiyo,9406,257,1994,12,2,6,0,0,176.46,1888.5,2,2256.2,2,30.33,2,34.12,2
Kaiyo,9406,258,1994,12,2,7,0,0,176.66,1888.4,2,2256.6,2,30.47,2,34.106,2
Kaiyo,9406,259,1994,12,2,8,0,0,176.87,1889.8,2,2257.6,2,30.35,2,34.109,2
Kaiyo,9406,260,1994,12,2,9,0,0,177.09,1892,2,2260.1,2,30.36,2,34.174,2
Kaiyo,9406,261,1994,12,2,10,0,0,177.29,1893.9,2,2262.1,2,30.27,2,34.197,2
Kaiyo,9406,262,1994,12,2,11,0,0,177.51,1894.4,2,2262.7,2,30.44,2,34.161,2
Kaiyo,9406,263,1994,12,2,12,0,-0.01,177.71,1893.7,2,2261,2,30.47,2,34.207,2
Kaiyo,9406,264,1994,12,2,13,0,-0.01,177.93,1893.5,2,2260.3,2,30.43,2,34.173,2
Kaiyo,9406,265,1994,12,2,14,0,-0.01,178.14,1893.7,2,2261,2,30.35,2,34.164,2
Kaiyo,9406,266,1994,12,2,15,0,0,178.35,1896,2,2263.2,2,30.36,2,34.16,2
Kaiyo,9406,267,1994,12,2,16,0,0,178.56,1896.6,2,2264,2,30.34,2,34.197,2
Kaiyo,9406,268,1994,12,2,17,0,0,178.77,1894.8,2,2260.9,2,30.2,2,34.194,2
Kaiyo,9406,269,1994,12,2,18,0,0,178.98,1896.5,2,2262.9,2,30.21,2,34.197,2
Kaiyo,9406,270,1994,12,2,19,0,0,179.2,1890,2,2254.8,2,30.13,2,34.159,2
Kaiyo,9406,271,1994,12,3,4,0,0,180.51,1893.5,2,2258.5,2,30.45,2,34.194,2
Kaiyo,9406,272,1994,12,3,5,0,0,180.73,1894.3,2,2260.7,2,30.68,2,34.18,2
Kaiyo,9406,273,1994,12,3,6,0,0,180.93,1897.2,2,2263.8,2,30.45,2,34.21,2
Kaiyo,9406,274,1994,12,3,7,0,0,181.14,1895.5,2,2262.8,2,30.42,2,34.209,2
Kaiyo,9406,275,1994,12,3,8,0,0,181.36,1898.4,2,2266.4,2,30.4,2,34.226,2
Kaiyo,9406,276,1994,12,3,9,0,0,181.56,1895.3,2,2262.7,2,30.55,2,34.217,2
Kaiyo,9406,277,1994,12,3,10,0,0,181.77,1894.7,2,2262.2,2,30.62,2,34.227,2
Kaiyo,9406,278,1994,12,3,11,0,0,181.97,1894.4,2,2262.3,2,30.46,2,34.217,2
Kaiyo,9406,279,1994,12,3,12,0,-0.01,182.18,1897.4,2,2265.5,2,30.37,2,34.238,2
Kaiyo,9406,280,1994,12,3,13,0,0,182.39,1898.6,2,2266.8,2,30.37,2,34.226,2
Kaiyo,9406,281,1994,12,3,14,0,0,182.59,1894.4,2,2260.5,2,30.41,2,34.209,2
Kaiyo,9406,282,1994,12,3,15,0,0,182.79,1893,2,2259.8,2,30.39,2,34.211,2
Kaiyo,9406,283,1994,12,3,16,0,0,182.99,1895.8,2,2263.7,2,30.33,2,34.197,2
Kaiyo,9406,284,1994,12,3,17,0,0,183.18,1900.7,2,2270.2,2,30.46,2,34.205,2
Kaiyo,9406,285,1994,12,3,18,0,0,183.38,1897.5,2,2265.9,2,30.29,2,34.204,2
Kaiyo,9406,286,1994,12,3,19,0,0,183.58,1895.4,2,2263.6,2,30.25,2,34.206,2
Kaiyo,9406,287,1994,12,4,0,0,0.02,184.16,1899,2,2269,2,30.33,2,34.258,2
Kaiyo,9406,288,1994,12,4,1,0,0.01,184.37,1894.8,2,2262.9,2,30.23,2,34.266,2
Kaiyo,9406,289,1994,12,4,2,0,0.01,184.57,1899.4,2,2268.7,2,30.36,2,34.259,2
Kaiyo,9406,290,1994,12,4,3,0,0,184.77,1893.9,2,2263.4,2,30.36,2,34.261,2
Kaiyo,9406,291,1994,12,4,4,0,0,184.97,1888,2,2255.9,2,30.13,2,34.196,2
Kaiyo,9406,292,1994,12,4,5,0,0,185.17,1893.3,2,2262.8,2,30.17,2,34.162,2
Kaiyo,9406,293,1994,12,4,6,0,0,185.37,1890.9,2,2260.5,2,30.16,2,34.202,2
Kaiyo,9406,294,1994,12,4,7,0,0,185.57,1897.2,2,2267.1,2,30.25,2,34.201,2
Kaiyo,9406,295,1994,12,4,8,0,0,185.79,1892.1,2,2262.4,2,30.18,2,34.218,2
Kaiyo,9406,296,1994,12,4,9,0,0,186,1890.7,2,2259.4,2,30.26,2,34.168,2
Kaiyo,9406,297,1994,12,4,10,0,0,186.21,1892.4,2,2262.1,2,30.25,2,34.199,2
Kaiyo,9406,298,1994,12,4,11,0,0,186.41,1897.4,2,2266.2,2,30.43,2,34.204,2
Kaiyo,9406,299,1994,12,4,12,0,0,186.62,1891.2,2,2261.1,2,30.13,2,34.176,2
Kaiyo,9406,300,1994,12,4,13,0,0,186.83,1889.2,2,2258.9,2,30.1,2,34.164,2